This is the latest recevied weather packets stored in our database for station/object N4DWK. If no packets are shown the sender has not sent any weather packets the latest 10 day(s).
| Time | Temp. | Humidity | Pressure | Rain* | Wind** | Luminosity | Snow |
|---|---|---|---|---|---|---|---|
| 1777922710 | 25.56° C | 36% | 1012.5 hPa | 0 mm | - | 561 W/m² | - |
| 1777922410 | 25.56° C | 37% | 1012.7 hPa | 0 mm | - | 580 W/m² | - |
| 1777922109 | 25° C | 37% | 1012.8 hPa | 0 mm | - | 526 W/m² | - |
| 1777921810 | 25° C | 38% | 1012.9 hPa | 0 mm | - | 555 W/m² | - |
| 1777921510 | 25° C | 38% | 1012.9 hPa | 0 mm | - | 515 W/m² | - |
| 1777921210 | 24.44° C | 38% | 1013.1 hPa | 0 mm | - | 592 W/m² | - |
| 1777920910 | 23.89° C | 38% | 1013.2 hPa | 0 mm | - | 615 W/m² | - |
| 1777920609 | 23.33° C | 39% | 1013.3 hPa | 0 mm | - | 522 W/m² | - |
| 1777920311 | 23.89° C | 39% | 1013.4 hPa | 0 mm | - | 482 W/m² | - |
| 1777920010 | 24.44° C | 38% | 1013.3 hPa | 0 mm | - | 179 W/m² | - |
| 1777919709 | 23.89° C | 39% | 1013.3 hPa | 0 mm | - | 578 W/m² | - |
| 1777919410 | 23.33° C | 38% | 1013.3 hPa | 0 mm | - | 550 W/m² | - |
| 1777919110 | 23.33° C | 39% | 1013.4 hPa | 0 mm | - | 364 W/m² | - |
| 1777918810 | 23.33° C | 37% | 1013.5 hPa | 0 mm | - | 352 W/m² | - |
| 1777918509 | 23.89° C | 37% | 1013.5 hPa | 0 mm | - | 455 W/m² | - |
| 1777918210 | 23.33° C | 39% | 1013.6 hPa | 0 mm | - | 499 W/m² | - |
| 1777917909 | 23.33° C | 39% | 1013.7 hPa | 0 mm | - | 432 W/m² | - |
| 1777917609 | 22.78° C | 38% | 1013.7 hPa | 0 mm | - | 336 W/m² | - |
| 1777917309 | 22.78° C | 37% | 1013.8 hPa | 0 mm | - | 214 W/m² | - |
| 1777917009 | 22.78° C | 38% | 1013.7 hPa | 0 mm | - | 178 W/m² | - |
| 1777916709 | 23.33° C | 38% | 1013.8 hPa | 0 mm | - | 183 W/m² | - |
| 1777916410 | 23.33° C | 39% | 1013.8 hPa | 0 mm | - | 301 W/m² | - |
| 1777916110 | 22.78° C | 39% | 1013.8 hPa | 0 mm | - | 394 W/m² | - |
| 1777915810 | 22.78° C | 39% | 1013.9 hPa | 0 mm | - | 248 W/m² | - |
| 1777915509 | 22.22° C | 40% | 1014 hPa | 0 mm | - | 230 W/m² | - |
* Rain latest hour (hover to see other rain measurements)
** Current wind speed in m/s (hover to see current wind gust speed)